Hourly Data Report for October 19, 2013

All times are specified in Local Standard Time (LST). Add 1 hour to adjust for Daylight Saving Time where and when it is observed.

KUGAARUK CLIMATE
NUNAVUT

68°32'15.060" N
89°47'47.020" W
15.80 m
2303094
71407
NBB

Download Data

Hourly Data (October 2013)
Hourly Data Report for October 19, 2013
Temp Definition
°C
Dew Point Temp Definition
°C
Rel Hum Definition
%
Wind Dir Definition
10's deg

Wind Spd Definition
km/h
Visibility Definition
km
Stn Press Definition
kPa
Hmdx Definition


Wind Chill Definition


Weather Definition


TIME
00:00 -3.3 -3.8 96 8 2   100.22   -4 LegendNANA
01:00 -3.2 -3.7 96 13 2   100.26   -4 LegendNANA
02:00 -3.4 -3.9 96 3 2   100.31   -4 LegendNANA
03:00 -3.6 -4.2 96 4 4   100.38   -5 LegendNANA
04:00 -3.8 -4.3 96 12 2   100.43   -5 LegendNANA
05:00 -4.0 -4.5 96 11 4   100.49   -6 LegendNANA
06:00 -3.7 -4.2 96 6 6   100.55   -6 LegendNANA
07:00 -4.2 -4.8 96 3 6   100.62   -7 LegendNANA
08:00 -4.2 -4.8 96 10 4   100.67   -6 LegendNANA
09:00 -4.2 -4.9 95 7 2   100.72   -5 LegendNANA
10:00 -3.9 -4.6 95 5 4   100.77   -6 LegendNANA
11:00 -3.7 -4.5 94 11 2   100.83   -5 LegendNANA
12:00 -3.4 -4.3 93 12 2   100.89   -4 LegendNANA
13:00 -3.3 -4.3 93 7 2   100.96   -4 LegendNANA
14:00 -3.5 -4.4 93 5 4   101.01   -5 LegendNANA
15:00 -3.5 -4.2 95 28 2   101.07   -4 LegendNANA
16:00 -3.1 -3.7 96 26 6   101.14   -6 LegendNANA
17:00 -3.5 -4.1 96 25 9   101.20   -7 LegendNANA
18:00 -3.7 -4.2 96 26 11   101.24   -8 LegendNANA
19:00 -3.6 -4.1 96 27 7   101.27   -7 LegendNANA
20:00 -3.6 -4.2 96 26 9   101.32   -7 LegendNANA
21:00 -3.5 -4.1 96 27 6   101.34   -6 LegendNANA
22:00 -3.5 -4.1 96 27 9   101.39   -7 LegendNANA
23:00 -3.6 -4.1 96 27 9   101.44   -7 LegendNANA

Notes on Data Quality.

Legend

  • E = Estimated
  • M = Missing
  • NA = Not Available
  • ‡ = Partner data that is not subject to review by the National Climate Archives
Date modified: